• In Portugal
  • List of Countries
  • For 7 days
  • Water Temperature
  • Satellite Maps
  • Weather Map
  • Weather Widgets
  • user-avatar
    Login

    Hourly Weather Satif

    Today, 20 February, Tuesday

    Time Temperature Precipitation Wind Pressure Humidity
    00:00 +5°C° 0 mm 1 mps 668 mmHg 91%
    01:00 +4°C° 0 mm 1 mps 668 mmHg 90%
    02:00 +4°C° 0 mm 1 mps 668 mmHg 90%
    03:00 +4°C° 0 mm 1 mps 668 mmHg 90%
    04:00 +3°C° 0 mm 1 mps 667 mmHg 90%
    05:00 +3°C° 0 mm 1 mps 667 mmHg 90%
    06:00 +2°C° 0 mm 1 mps 667 mmHg 91%
    07:00 +4°C° 0 mm 1 mps 667 mmHg 82%
    08:00 +5°C° 0 mm 1 mps 667 mmHg 74%
    09:00 +6°C° 0 mm 1 mps 668 mmHg 65%
    10:00 +7°C° 0 mm 2 mps 668 mmHg 59%
    11:00 +8°C° 0 mm 3 mps 668 mmHg 52%
    12:00 +9°C° 0 mm 3 mps 668 mmHg 45%
    13:00 +8°C° 0 mm 4 mps 667 mmHg 48%
    14:00 +8°C° 0 mm 5 mps 667 mmHg 50%
    15:00 +8°C° 0 mm 5 mps 666 mmHg 52%
    16:00 +8°C° 0.5 mm 5 mps 666 mmHg 60%
    17:00 +7°C° 0.5 mm 4 mps 666 mmHg 68%
    18:00 +6°C° 0.5 mm 4 mps 666 mmHg 76%
    19:00 +5°C° 0.3 mm 3 mps 666 mmHg 78%
    20:00 +5°C° 0.3 mm 3 mps 666 mmHg 81%
    21:00 +5°C° 0.3 mm 3 mps 666 mmHg 84%
    22:00 +5°C° 0.5 mm 3 mps 666 mmHg 85%
    23:00 +4°C° 0.5 mm 3 mps 665 mmHg 87%

    Tomorrow, 21 February, Wednesday

    Time Temperature Precipitation Wind Pressure Humidity
    00:00 +4°C° 0.5 mm 3 mps 665 mmHg 88%
    01:00 +4°C° 0.6 mm 3 mps 665 mmHg 88%
    02:00 +4°C° 0.6 mm 3 mps 664 mmHg 89%
    03:00 +5°C° 0.6 mm 2 mps 664 mmHg 90%
    04:00 +5°C° 0.7 mm 2 mps 664 mmHg 90%
    05:00 +5°C° 0.7 mm 2 mps 664 mmHg 91%
    06:00 +6°C° 0.7 mm 1 mps 664 mmHg 91%
    07:00 +6°C° 0.5 mm 1 mps 664 mmHg 89%
    08:00 +6°C° 0.5 mm 1 mps 664 mmHg 86%
    09:00 +7°C° 0.5 mm 1 mps 664 mmHg 84%
    10:00 +7°C° 0.4 mm 1 mps 664 mmHg 81%
    11:00 +8°C° 0.4 mm 1 mps 663 mmHg 78%
    12:00 +7°C° 0.4 mm 2 mps 663 mmHg 74%
    13:00 +6°C° 1.2 mm 2 mps 663 mmHg 77%
    14:00 +5°C° 1.2 mm 3 mps 662 mmHg 80%
    15:00 +4°C° 1.2 mm 3 mps 661 mmHg 83%
    16:00 +4°C° 0.5 mm 3 mps 661 mmHg 84%
    17:00 +3°C° 0.5 mm 3 mps 661 mmHg 85%
    18:00 +2°C° 0.5 mm 3 mps 661 mmHg 86%
    19:00 +2°C° 0.4 mm 3 mps 661 mmHg 85%
    20:00 +1°C° 0.4 mm 3 mps 661 mmHg 85%
    21:00 +2°C° 0.4 mm 2 mps 662 mmHg 84%
    22:00 +2°C° 0.1 mm 2 mps 661 mmHg 83%
    23:00 +2°C° 0.1 mm 2 mps 661 mmHg 83%

    Day after tomorrow, 22 February, Thursday

    Time Temperature Precipitation Wind Pressure Humidity
    00:00 +2°C° 0.1 mm 2 mps 661 mmHg 82%
    01:00 +1°C° 0 mm 2 mps 661 mmHg 82%
    02:00 +1°C° 0 mm 2 mps 661 mmHg 83%
    03:00 -1°C° 0 mm 2 mps 660 mmHg 84%
    04:00 -1°C° 0 mm 2 mps 660 mmHg 85%
    05:00 -1°C° 0 mm 2 mps 660 mmHg 86%
    06:00 -1°C° 0 mm 2 mps 660 mmHg 87%
    07:00 +1°C° 0.1 mm 2 mps 661 mmHg 83%
    08:00 +2°C° 0.1 mm 2 mps 661 mmHg 80%
    09:00 +2°C° 0.1 mm 2 mps 661 mmHg 76%
    10:00 +2°C° 0.2 mm 3 mps 661 mmHg 73%
    11:00 +3°C° 0.2 mm 3 mps 662 mmHg 69%
    12:00 +3°C° 0.2 mm 3 mps 662 mmHg 65%
    13:00 +3°C° 0.3 mm 3 mps 661 mmHg 66%
    14:00 +3°C° 0.3 mm 3 mps 661 mmHg 67%
    15:00 +3°C° 0.3 mm 3 mps 661 mmHg 67%
    16:00 +3°C° 0.2 mm 3 mps 661 mmHg 72%
    17:00 +2°C° 0.2 mm 3 mps 661 mmHg 77%
    18:00 +1°C° 0.2 mm 3 mps 661 mmHg 81%
    19:00 +2°C° 0 mm 2 mps 661 mmHg 84%
    20:00 +1°C° 0 mm 2 mps 662 mmHg 86%
    21:00 +2°C° 0 mm 1 mps 662 mmHg 88%
    22:00 +1°C° 0 mm 1 mps 662 mmHg 89%
    23:00 +1°C° 0 mm 1 mps 662 mmHg 89%

    23 February, Friday

    Time Temperature Precipitation Wind Pressure Humidity
    00:00 +1°C° 0 mm 1 mps 662 mmHg 90%
    01:00 0°C° 0 mm 1 mps 661 mmHg 90%
    02:00 0°C° 0 mm 1 mps 661 mmHg 90%
    03:00 0°C° 0 mm 1 mps 661 mmHg 89%
    04:00 -1°C° 0 mm 1 mps 661 mmHg 88%
    05:00 -1°C° 0 mm 1 mps 661 mmHg 86%
    06:00 -1°C° 0 mm 1 mps 661 mmHg 84%
    07:00 +1°C° 0 mm 1 mps 662 mmHg 75%
    08:00 +2°C° 0 mm 1 mps 663 mmHg 66%
    09:00 +4°C° 0 mm 1 mps 663 mmHg 57%
    10:00 +5°C° 0 mm 1 mps 664 mmHg 52%
    11:00 +6°C° 0 mm 1 mps 664 mmHg 47%
    12:00 +6°C° 0 mm 2 mps 664 mmHg 42%
    13:00 +6°C° 0 mm 2 mps 664 mmHg 43%
    14:00 +7°C° 0 mm 2 mps 664 mmHg 45%
    15:00 +7°C° 0 mm 2 mps 664 mmHg 46%
    16:00 +6°C° 0 mm 2 mps 664 mmHg 53%
    17:00 +5°C° 0 mm 2 mps 664 mmHg 59%
    18:00 +5°C° 0 mm 1 mps 664 mmHg 65%
    19:00 +5°C° 0 mm 1 mps 664 mmHg 68%
    20:00 +4°C° 0 mm 1 mps 664 mmHg 71%
    21:00 +3°C° 0 mm 1 mps 664 mmHg 74%
    22:00 +3°C° 0 mm 1 mps 664 mmHg 74%
    23:00 +3°C° 0 mm 1 mps 664 mmHg 73%

    24 February, Saturday

    Time Temperature Precipitation Wind Pressure Humidity
    00:00 +3°C° 0 mm 1 mps 664 mmHg 73%
    01:00 +3°C° 0 mm 1 mps 663 mmHg 71%
    02:00 +4°C° 0 mm 1 mps 663 mmHg 69%
    03:00 +3°C° 0 mm 2 mps 663 mmHg 67%
    04:00 +3°C° 0 mm 2 mps 663 mmHg 66%
    05:00 +3°C° 0 mm 2 mps 664 mmHg 66%
    06:00 +3°C° 0 mm 2 mps 664 mmHg 65%
    07:00 +4°C° 0 mm 3 mps 664 mmHg 60%
    08:00 +5°C° 0 mm 3 mps 664 mmHg 55%
    09:00 +6°C° 0 mm 4 mps 665 mmHg 51%
    10:00 +7°C° 0 mm 4 mps 665 mmHg 47%
    11:00 +9°C° 0 mm 5 mps 665 mmHg 44%
    12:00 +10°C° 0 mm 6 mps 665 mmHg 40%
    13:00 +10°C° 0 mm 6 mps 665 mmHg 41%
    14:00 +10°C° 0 mm 5 mps 664 mmHg 43%
    15:00 +10°C° 0 mm 5 mps 664 mmHg 44%
    16:00 +10°C° 0.1 mm 4 mps 664 mmHg 51%
    17:00 +8°C° 0.1 mm 3 mps 664 mmHg 58%
    18:00 +7°C° 0.1 mm 2 mps 664 mmHg 64%
    19:00 +6°C° 0.3 mm 2 mps 664 mmHg 67%
    20:00 +7°C° 0.3 mm 1 mps 664 mmHg 69%
    21:00 +7°C° 0.3 mm 1 mps 664 mmHg 71%
    22:00 +7°C° 0.2 mm 1 mps 664 mmHg 72%
    23:00 +6°C° 0.2 mm 1 mps 664 mmHg 72%

    25 February, Sunday

    Time Temperature Precipitation Wind Pressure Humidity
    00:00 +6°C° 0.2 mm 1 mps 664 mmHg 73%
    01:00 +5°C° 0 mm 1 mps 664 mmHg 73%
    02:00 +5°C° 0 mm 1 mps 664 mmHg 74%
    03:00 +5°C° 0 mm 1 mps 664 mmHg 75%
    04:00 +4°C° 0 mm 1 mps 664 mmHg 76%
    05:00 +4°C° 0 mm 1 mps 664 mmHg 77%
    06:00 +4°C° 0 mm 1 mps 664 mmHg 79%
    07:00 +5°C° 0 mm 1 mps 665 mmHg 74%
    08:00 +7°C° 0 mm 1 mps 666 mmHg 69%
    09:00 +7°C° 0 mm 2 mps 667 mmHg 65%
    10:00 +8°C° 0 mm 2 mps 667 mmHg 61%
    11:00 +9°C° 0 mm 3 mps 667 mmHg 57%
    12:00 +10°C° 0 mm 3 mps 667 mmHg 53%
    13:00 +10°C° 0.1 mm 3 mps 667 mmHg 54%
    14:00 +10°C° 0.1 mm 3 mps 667 mmHg 55%
    15:00 +10°C° 0.1 mm 4 mps 667 mmHg 56%
    16:00 +9°C° 0 mm 3 mps 667 mmHg 62%
    17:00 +8°C° 0 mm 3 mps 667 mmHg 69%
    18:00 +7°C° 0 mm 2 mps 667 mmHg 75%
    19:00 +6°C° 0 mm 2 mps 667 mmHg 79%
    20:00 +6°C° 0 mm 1 mps 667 mmHg 83%
    21:00 +4°C° 0 mm 0 mps 667 mmHg 86%
    22:00 +5°C° 0 mm 1 mps 667 mmHg 86%
    23:00 +5°C° 0 mm 1 mps 666 mmHg 86%
    Show more